User: anonymous   Login
Location: Unspecified
(0.0000°N, 0.0000°E)
Time: 08:38:20
(UTC+00:00)
Language:

Ayame - Orbit

View from above orbital plane
View from above orbital plane
View from above satellite
View from above satellite

Ground track
Ground track

The orbit data is extracted from the following two-line orbital elements,

1 11261U 79009A   18019.28455594 -.00000075 +00000-0 +00000-0 0  9990
2 11261 008.2002 112.8689 3689537 149.5312 248.3241 01.68580105124382
Epoch (UTC): 19 January 2018 06:49:45
Eccentricity: 0.3689537
inclination: 8.2002°
perigee height: 12440 km
apogee height: 34446 km
right ascension of ascending node: 112.8689°
argument of perigee: 149.5312°
revolutions per day: 1.68580105
mean anomaly at epoch: 248.3241°
orbit number at epoch: 12438

The dashed part of the orbit path shows where the satellite is in the earth's shadow,  

DLR